[[{"header":{"parameterUnit":"m.s-1","parameterCategory":1,"la1":30.2991,"la2":30.254,"lo1":-89.0895,"lo2":-89.0444,"dx":0.0017,"dy":0.0017,"nx":28,"ny":28,"refTime":"2022-11-15T15:00:00:Z","depth":0,"parameterNumber":2,"parameterNumberName":"U-component_of_WINDS"},"data":[0,0,0,0,0,0,0,0,0,0,0,0,0,0,0,0,0,0,0,0,0,0,0,0,0,0,0,0,0,0,0,0,0,0,0,0,0,0,0,0,0,0,0,0,0,0,0,0,0,0,0,0,0,0,0,0,0,0,-0.7896,-0.7897,0,-0.7975,-0.7976,-0.7977,-0.7942,-0.794,-0.7938,-0.7937,-0.8019,-0.8023,-0.8027,0,0,0,0,0,0,0,0,0,0,0,0,0,-0.7716,-0.7719,-0.7896,-0.7897,-0.7898,-0.7975,-0.7976,-0.7977,-0.7943,-0.794,-0.7938,-0.7936,-0.8018,-0.8023,-0.8028,0,0,0,0,0,0,0,0,0,0,0,0,0,-0.7794,-0.772,-0.7896,-0.789,-0.789,-0.7974,-0.7976,-0.7977,-0.7943,-0.794,-0.7937,-0.7935,-0.8016,-0.8022,-0.8028,-0.8123,0,0,-0.8047,-0.8049,0,0,0,0,0,0,0,0,-0.779,-0.7801,-0.789,-0.789,-0.7891,-0.7946,-0.7943,-0.8026,-0.7944,-0.7923,-0.7937,-0.7933,-0.7997,-0.8005,-0.8026,-0.8127,-0.8131,-0.8047,-0.8051,-0.8053,-0.8055,0,0,0,0,0,0,0,-0.7785,-0.7797,-0.7927,-0.7891,-0.7892,-0.7884,-0.7891,-0.7958,-0.7976,-0.7925,-0.7922,-0.7932,-0.7997,-0.802,-0.8028,-0.8132,-0.8047,-0.8052,-0.8056,-0.8058,-0.8314,-0.8317,0,0,0,0,0,0,-0.7779,-0.7793,-0.7925,-0.7929,-0.7832,-0.7889,-0.7898,-0.7931,-0.7975,-0.7979,-0.7934,-0.793,-0.8011,-0.8021,-0.803,-0.8145,-0.8053,-0.8059,-0.8062,-0.8311,-0.8315,-0.8318,0,0,0,0,0,0,-0.7775,-0.7791,-0.7921,-0.7861,-0.7877,-0.7895,-0.7933,-0.7934,-0.7957,-0.7982,-0.7985,-0.7955,-0.8009,-0.8022,-0.81,-0.8147,-0.8062,-0.8067,-0.8307,-0.8312,-0.8317,-0.8375,0,0,0,0,0,0,-0.777,-0.779,-0.7826,-0.7862,-0.788,-0.799,-0.7936,-0.7938,-0.7968,-0.7963,-0.8002,-0.8006,-0.8008,-0.8091,-0.8106,-0.8154,-0.8072,-0.8303,-0.8309,-0.8315,-0.8369,-0.8381,-0.8391,0,0,0,0,0,-0.7764,-0.784,-0.7828,-0.7845,-0.7926,-0.7993,-0.8003,-0.8004,-0.7971,-0.8008,-0.8024,-0.8005,-0.8139,-0.81,-0.8116,-0.8166,-0.83,-0.8308,-0.8315,-0.8364,-0.8378,-0.8391,0,0,0,0,0,0,-0.7811,-0.7845,-0.7832,-0.7922,-0.7955,-0.7987,-0.8034,-0.802,-0.8063,-0.8057,-0.8056,-0.8065,-0.8146,-0.8163,-0.8119,-0.826,-0.8215,-0.8226,-0.8246,-0.8261,-0.8272,-0.8267,-0.8077,0,0,0,0,0,-0.7832,-0.7883,-0.7909,-0.7986,-0.8003,-0.8015,-0.8045,-0.8042,-0.8076,-0.809,-0.8111,-0.8146,-0.8195,-0.8228,-0.8276,-0.837,-0.8378,-0.8412,-0.8423,-0.8433,-0.8443,-0.8494,-0.851,-0.8342,-0.8342,-0.8342,0,0,-0.7876,-0.79,-0.7933,-0.7996,-0.8021,-0.8075,-0.8028,-0.8086,-0.8126,-0.8099,-0.8175,-0.8191,-0.8229,-0.8315,-0.8355,-0.8333,-0.849,-0.8442,-0.8449,-0.8454,-0.8503,-0.8519,-0.8533,-0.8347,-0.8346,-0.8345,0,0,-0.7983,-0.8006,-0.8073,-0.8098,-0.8136,-0.8143,-0.8159,-0.8193,-0.8203,-0.8278,-0.8259,-0.8305,-0.8391,-0.8419,-0.8445,-0.856,-0.8544,-0.8575,-0.8635,-0.8685,-0.8698,-0.871,-0.8752,-0.8767,-0.8584,-0.8584,-0.8584,0,-0.8033,-0.8112,-0.8109,-0.8169,-0.8197,-0.8173,-0.8241,-0.8266,-0.8318,-0.8338,-0.8312,-0.8418,-0.8442,-0.8535,-0.8563,-0.8584,-0.8602,-0.8572,-0.8696,-0.8708,-0.8719,-0.8759,-0.8775,-0.8588,-0.8588,-0.8587,-0.8587,0,-0.8172,-0.8228,-0.8277,-0.8326,-0.836,-0.8423,-0.8429,-0.8464,-0.8457,-0.8467,-0.8543,-0.857,-0.8623,-0.8644,-0.8638,-0.8736,-0.8721,-0.8695,-0.865,-0.8738,-0.8776,-0.8791,-0.8593,-0.8592,-0.8591,-0.859,0,0,-0.8315,-0.836,-0.8378,-0.84,-0.8439,-0.8482,-0.8543,-0.8593,-0.8623,-0.8659,-0.8711,-0.8783,-0.8759,-0.8788,-0.8785,-0.8828,-0.8918,-0.8797,-0.8798,-0.882,-0.9028,-0.9048,-0.9066,-0.8906,-0.8909,-0.8911,-0.9025,0,-0.8427,-0.8535,-0.8533,-0.8633,-0.8684,-0.8661,-0.8715,-0.8744,-0.8754,-0.8799,-0.881,-0.8861,-0.8825,-0.8843,-0.8884,-0.8899,-0.896,-0.889,-0.8956,-0.8959,-0.895,-0.9086,-0.9108,-0.9214,-0.9039,-0.9042,-0.9044,0,-0.8573,-0.8612,-0.8718,-0.8748,-0.8769,-0.8818,-0.8863,-0.8905,-0.8938,-0.8942,-0.8973,-0.8962,-0.9025,-0.8975,-0.9061,-0.9014,-0.904,-0.9051,-0.9055,-0.9063,-0.9009,-0.91,-0.9248,-0.9264,-0.9067,-0.9065,-0.9063,0,-0.8668,-0.8747,-0.8821,-0.884,-0.8877,-0.8911,-0.8928,-0.8958,-0.8988,-0.9026,-0.9046,-0.9092,-0.9117,-0.9153,-0.9155,-0.9118,-0.9242,-0.9192,-0.9248,-0.9248,-0.9278,-0.9276,-0.9434,-0.9291,-0.9291,-0.929,-0.929,0,-0.8795,-0.8861,-0.8864,-0.891,-0.8983,-0.8978,-0.905,-0.9064,-0.909,-0.9137,-0.9119,-0.9164,-0.9163,-0.9208,-0.921,-0.9281,-0.9292,-0.9298,-0.9298,-0.9301,-0.9301,-0.9321,-0.9314,-0.9294,-0.9293,-0.9293,-0.9292,0,-0.8915,-0.892,-0.8999,-0.9026,-0.9034,-0.9087,-0.9111,-0.9154,-0.9161,-0.9221,-0.9235,-0.9247,-0.9299,-0.9303,-0.9365,-0.9365,-0.9452,-0.9443,-0.9442,-0.9441,-0.9497,-0.9492,-0.9675,-0.9699,-0.9538,-0.9539,-0.9541,0,-0.8997,-0.9047,-0.9079,-0.911,-0.9128,-0.9177,-0.9207,-0.9203,-0.9235,-0.9275,-0.9313,-0.9364,-0.9404,-0.9489,-0.9503,-0.9549,-0.9543,-0.9603,-0.955,-0.9551,-0.9546,-0.9544,-0.9549,-0.9615,-0.9617,-0.9618,-0.9619,0,-0.9142,-0.9141,-0.9185,-0.9229,-0.9265,-0.93,-0.9333,-0.9358,-0.9358,-0.9395,-0.9448,-0.9479,-0.954,-0.9591,-0.9636,-0.9653,-0.9637,-0.9635,-0.9651,-0.9656,-0.9653,-0.9657,-0.9472,-0.9632,-0.9631,-0.963,-0.9629,-0.9628,-0.9247,-0.9291,-0.932,-0.9369,-0.9392,-0.9422,-0.9464,-0.9475,-0.9519,-0.9569,-0.9564,-0.9623,-0.9652,-0.971,-0.9731,-0.9777,-0.9756,-0.9779,-0.9785,-0.9791,-0.9797,-0.9644,-0.9784,-0.9784,-0.9784,-0.9783,-0.9783,0,-0.9393,-0.941,-0.9455,-0.95,-0.9538,-0.9517,-0.9551,-0.9585,-0.9637,-0.9665,-0.9705,-0.9765,-0.9813,-0.983,-0.9877,-0.991,-0.9904,-0.9923,-0.9922,-0.9926,-0.9812,-0.9795,-0.9927,-0.9927,-0.9927,-0.9927,-0.9927,-0.9927,-0.9474,-0.9546,-0.9548,-0.9631,-0.9647,-0.9705,-0.9726,-0.9754,-0.9776,-0.9845,-0.9884,-0.9894,-0.9918,-0.9966,-1.0009,-1.0012,-1.0031,-1.0054,-1.0054,-0.9948,-0.9934,-0.992,-0.9904,-1.0057,-1.0058,-1.0165,-1.0166,-1.0166]},{"header":{"parameterUnit":"m.s-1","parameterCategory":1,"la1":30.2991,"la2":30.254,"lo1":-89.0895,"lo2":-89.0444,"dx":0.0017,"dy":0.0017,"nx":28,"ny":28,"refTime":"2022-11-15T15:00:00:Z","depth":0,"parameterNumber":3,"parameterNumberName":"V-component_of_WINDS"},"data":[0,0,0,0,0,0,0,0,0,0,0,0,0,0,0,0,0,0,0,0,0,0,0,0,0,0,0,0,0,0,0,0,0,0,0,0,0,0,0,0,0,0,0,0,0,0,0,0,0,0,0,0,0,0,0,0,0,0,-7.4623,-7.4624,0,-7.48,-7.4802,-7.4804,-7.4733,-7.4729,-7.4725,-7.4721,-7.4897,-7.4906,-7.4914,0,0,0,0,0,0,0,0,0,0,0,0,0,-7.4216,-7.4224,-7.4622,-7.4625,-7.4627,-7.48,-7.4802,-7.4805,-7.4734,-7.4729,-7.4724,-7.4719,-7.4894,-7.4905,-7.4915,0,0,0,0,0,0,0,0,0,0,0,0,0,-7.4393,-7.4227,-7.4622,-7.4613,-7.4614,-7.4799,-7.4802,-7.4805,-7.4735,-7.4729,-7.4723,-7.4717,-7.4891,-7.4904,-7.4916,-7.512,0,0,-7.4955,-7.4961,0,0,0,0,0,0,0,0,-7.4383,-7.4408,-7.4612,-7.4614,-7.4615,-7.4738,-7.4723,-7.491,-7.4737,-7.4689,-7.4721,-7.4714,-7.4849,-7.4865,-7.4912,-7.5128,-7.5136,-7.4957,-7.4964,-7.497,-7.4973,0,0,0,0,0,0,0,-7.4371,-7.44,-7.4692,-7.4615,-7.4617,-7.4598,-7.4616,-7.4759,-7.4801,-7.4693,-7.4688,-7.471,-7.4849,-7.49,-7.4915,-7.5138,-7.4956,-7.4968,-7.4975,-7.4981,-7.5529,-7.5535,0,0,0,0,0,0,-7.4359,-7.439,-7.4687,-7.4698,-7.4482,-7.461,-7.463,-7.4705,-7.48,-7.4808,-7.4715,-7.4706,-7.4881,-7.49,-7.4921,-7.5165,-7.497,-7.4982,-7.4989,-7.5522,-7.553,-7.5537,0,0,0,0,0,0,-7.4351,-7.4386,-7.468,-7.4543,-7.4579,-7.4624,-7.4708,-7.4712,-7.4763,-7.4817,-7.4824,-7.476,-7.4877,-7.4903,-7.5071,-7.517,-7.4988,-7.4999,-7.5514,-7.5524,-7.5534,-7.5655,0,0,0,0,0,0,-7.4339,-7.4384,-7.4463,-7.4545,-7.4586,-7.4829,-7.4714,-7.472,-7.4786,-7.4775,-7.4861,-7.4869,-7.4874,-7.5052,-7.5084,-7.5185,-7.5009,-7.5505,-7.5518,-7.5531,-7.5643,-7.5668,-7.5691,0,0,0,0,0,-7.4325,-7.4489,-7.4467,-7.4504,-7.4687,-7.4835,-7.4858,-7.4862,-7.4794,-7.4873,-7.4908,-7.4866,-7.5154,-7.507,-7.5105,-7.5211,-7.5499,-7.5515,-7.553,-7.5632,-7.5663,-7.569,0,0,0,0,0,0,-7.4416,-7.45,-7.4477,-7.4673,-7.4748,-7.4823,-7.4923,-7.4896,-7.499,-7.4976,-7.4975,-7.4995,-7.5168,-7.5206,-7.5111,-7.5412,-7.5316,-7.5339,-7.5382,-7.5412,-7.5436,-7.5423,-7.502,0,0,0,0,0,-7.4459,-7.4574,-7.464,-7.4807,-7.4846,-7.4878,-7.4943,-7.4939,-7.5016,-7.5047,-7.5093,-7.5168,-7.5275,-7.5345,-7.5447,-7.5647,-7.5664,-7.5737,-7.5761,-7.5781,-7.5801,-7.5908,-7.5941,-7.5588,-7.5588,-7.5588,0,0,-7.4549,-7.4609,-7.4681,-7.4827,-7.4884,-7.5001,-7.4905,-7.5033,-7.512,-7.5065,-7.5227,-7.5264,-7.5346,-7.5532,-7.5615,-7.5568,-7.5902,-7.58,-7.5816,-7.5825,-7.5928,-7.5961,-7.5991,-7.5599,-7.5597,-7.5595,0,0,-7.4772,-7.483,-7.4975,-7.5035,-7.5123,-7.5144,-7.5178,-7.5258,-7.5281,-7.5444,-7.5405,-7.5507,-7.5692,-7.5752,-7.5807,-7.6052,-7.6017,-7.6085,-7.621,-7.6315,-7.6343,-7.6368,-7.6454,-7.6486,-7.6104,-7.6105,-7.6105,0,-7.4872,-7.505,-7.5052,-7.5184,-7.5248,-7.5206,-7.5351,-7.5408,-7.5525,-7.557,-7.5516,-7.5747,-7.5799,-7.5997,-7.6057,-7.6103,-7.6141,-7.6075,-7.6339,-7.6364,-7.6387,-7.647,-7.6502,-7.6112,-7.6112,-7.6111,-7.611,0,-7.5168,-7.5291,-7.5397,-7.5513,-7.5589,-7.5727,-7.5748,-7.5824,-7.5814,-7.5839,-7.6005,-7.6066,-7.6179,-7.6225,-7.6216,-7.6422,-7.639,-7.6338,-7.6241,-7.6428,-7.6506,-7.6538,-7.6124,-7.6121,-7.6118,-7.6117,0,0,-7.5454,-7.557,-7.5608,-7.566,-7.5754,-7.5849,-7.5983,-7.6096,-7.6161,-7.6242,-7.6354,-7.6511,-7.6464,-7.6526,-7.6522,-7.6615,-7.6804,-7.6551,-7.6552,-7.6595,-7.7033,-7.7072,-7.7109,-7.6781,-7.6787,-7.6792,-7.7026,0,-7.5685,-7.5925,-7.593,-7.6149,-7.6262,-7.6222,-7.6339,-7.6409,-7.6436,-7.6534,-7.6562,-7.6674,-7.6602,-7.6639,-7.6729,-7.6762,-7.6892,-7.6745,-7.6883,-7.6888,-7.6865,-7.715,-7.7192,-7.741,-7.7057,-7.7062,-7.7066,0,-7.5987,-7.608,-7.631,-7.6388,-7.6435,-7.6541,-7.6644,-7.6738,-7.6815,-7.6828,-7.6898,-7.688,-7.7015,-7.6914,-7.7099,-7.7,-7.7056,-7.7081,-7.7089,-7.7102,-7.6989,-7.717,-7.748,-7.7513,-7.7114,-7.711,-7.7106,0,-7.6173,-7.6355,-7.6516,-7.6562,-7.6656,-7.6731,-7.6773,-7.6844,-7.6911,-7.7,-7.7043,-7.7146,-7.7202,-7.7281,-7.7291,-7.7216,-7.7477,-7.7376,-7.749,-7.749,-7.7547,-7.7543,-7.787,-7.7583,-7.7583,-7.7582,-7.7582,0,-7.643,-7.6573,-7.6601,-7.67,-7.6858,-7.6862,-7.7017,-7.7052,-7.7116,-7.722,-7.7191,-7.7288,-7.7295,-7.7395,-7.7403,-7.7555,-7.758,-7.7593,-7.7594,-7.7596,-7.7595,-7.7633,-7.7618,-7.7591,-7.7589,-7.7587,-7.7586,0,-7.6665,-7.669,-7.6863,-7.6938,-7.696,-7.7073,-7.7136,-7.723,-7.7253,-7.7385,-7.7416,-7.7452,-7.7568,-7.7586,-7.7721,-7.7726,-7.7908,-7.7892,-7.7883,-7.7881,-7.7993,-7.7982,-7.8356,-7.8405,-7.8087,-7.809,-7.8092,0,-7.6828,-7.6937,-7.7024,-7.7092,-7.7139,-7.7249,-7.7318,-7.7325,-7.7396,-7.7492,-7.7573,-7.7686,-7.7777,-7.7963,-7.8,-7.8103,-7.809,-7.8214,-7.8105,-7.8104,-7.8091,-7.8085,-7.8095,-7.8235,-7.8238,-7.8241,-7.8243,0,-7.7114,-7.7121,-7.7222,-7.7327,-7.741,-7.7492,-7.757,-7.7627,-7.7644,-7.7726,-7.7845,-7.7915,-7.8053,-7.8165,-7.8267,-7.8308,-7.8279,-7.8277,-7.8309,-7.8312,-7.8302,-7.8309,-7.794,-7.8269,-7.8266,-7.8264,-7.8263,-7.8262,-7.7318,-7.7412,-7.7488,-7.7601,-7.7661,-7.7734,-7.7826,-7.7861,-7.7961,-7.8076,-7.8073,-7.8203,-7.8275,-7.8409,-7.8456,-7.8557,-7.8516,-7.8562,-7.8574,-7.8585,-7.8596,-7.8286,-7.8575,-7.8574,-7.8574,-7.8573,-7.8573,0,-7.7602,-7.7649,-7.7753,-7.7864,-7.7952,-7.7918,-7.8002,-7.8077,-7.8193,-7.8264,-7.8354,-7.849,-7.8598,-7.8643,-7.8749,-7.882,-7.8809,-7.8847,-7.8842,-7.8852,-7.8626,-7.8588,-7.8855,-7.8855,-7.8855,-7.8854,-7.8854,-7.8854,-7.7761,-7.7919,-7.7935,-7.8121,-7.8166,-7.8295,-7.8346,-7.8413,-7.8469,-7.8623,-7.8713,-7.8742,-7.8802,-7.8912,-7.9009,-7.9019,-7.9059,-7.9104,-7.9108,-7.8896,-7.8868,-7.8841,-7.8805,-7.9112,-7.9113,-7.9325,-7.9327,-7.9328]}]]